Miscellaneous Local Product
Issued by NWS Hastings, NE

Home | Current Version | Previous Version | Graphics & Text | Print | Product List | Glossary On
Versions: 1 2 3 4 5 6 7 8 9 10 11 12 13 14 15 16 17 18 19 20 21 22 23 24 25 26 27 28 29 30 31 32 33 34 35 36 37 38 39 40 41 42 43 44 45 46 47 48 49 50
000
AXUS43 KGID 270902
MISGRI

GID CWA HOURLY WEATHER ROUNDUP
NATIONAL WEATHER SERVICE HASTINGS NE
400 AM CDT SAT AUG 27 2016

NOTE: "FAIR" INDICATES FEW OR NO CLOUDS BELOW 12,000 FEET WITH NO
SIGNIFICANT WEATHER AND/OR OBSTRUCTIONS TO VISIBILITY.

...SOUTH CENTRAL NEBRASKA...

CITY           SKY/WX    TMP DP  RH WIND       PRES   REMARKS
GRAND ISLAND   CLOUDY    65  64  97 W5        30.02S FOG
HASTINGS       FOG       63  62  97 NW5       30.03S VSB 1/2
KEARNEY        CLOUDY    61  57  88 W5        30.02F
ORD            CLOUDY    64  61  90 S3        30.01F
YORK           CLOUDY    66  64  94 SW3       30.01S FOG
AURORA         FOG       65  65 100 SW5       30.01F VSB 1/2
LEXINGTON      CLOUDY    54  52  95 NW6       30.04F FOG
HOLDREGE       CLOUDY    56  55  95 W3        30.04F
HEBRON         MOCLDY    67  66  97 SE7       30.00R

...NEBRASKA PANHANDLE...

CITY           SKY/WX    TMP DP  RH WIND       PRES   REMARKS
CHADRON        CLOUDY    56  50  80 W3        30.02R
ALLIANCE       CLOUDY    55  55 100 SE8       30.05F FOG
SCOTTSBLUFF    CLEAR     52  50  93 SE6       30.05F
SIDNEY         MOCLDY    53  52  96 NE9       30.10R FOG

...WESTERN AND NORTH CENTRAL NEBRASKA...

CITY           SKY/WX    TMP DP  RH WIND       PRES   REMARKS
VALENTINE      PTCLDY    54  52  93 S9        30.00F
AINSWORTH      PTCLDY    53  53 100 S3        30.04F FOG
ONEILL         FOG       62  61  96 SW3       30.03R VSB 1/4
BROKEN BOW     FOG       56  55  97 W3        30.03F VSB 3/4
IMPERIAL       CLOUDY    50  49  96 CALM      30.08S FOG
NORTH PLATTE   FOG       54  52  93 CALM      30.07R VSB 1/4
MCCOOK         MOCLDY    53  52  96 N6        30.05F

...EASTERN NEBRASKA...

CITY           SKY/WX    TMP DP  RH WIND       PRES   REMARKS
NORFOLK        CLOUDY    63  62  97 CALM      30.01S FOG
SO SIOUX CITY  CLOUDY    65  61  87 SE9       30.00S
TEKAMAH        CLOUDY    65  63  93 CALM      30.00S
COLUMBUS       CLOUDY    64  57  77 CALM      30.00S
ALBION         CLOUDY    63  61  94 SW3       30.01F FOG
OMAHA EPPLEY   CLOUDY    66  63  90 CALM      30.00S
OFFUTT AFB     CLOUDY    66  66 100 CALM      29.99R
MILLARD        CLOUDY    67  65  94 CALM      30.00R
LINCOLN        CLOUDY    67  66  97 S3        30.01R
NEBRASKA CITY  FOG       66  66 100 S6        30.00F VSB 1/2
BEATRICE       RAIN      67  66  99 S8        30.00S
FALLS CITY     FOG       68  68 100 S3        30.00R VSB 3/4

...NORTHERN KANSAS...

CITY           SKY/WX    TMP DP  RH WIND       PRES   REMARKS
GOODLAND       FOG       52  52 100 S6        30.05F VSB 3/4
HILL CITY      CLOUDY    57  56  96 CALM      30.03F
SMITH CENTER   MOCLDY    59  57  94 CALM      30.03R
BELOIT         MOCLDY    63  61  94 S3        29.99F
HAYS           CLOUDY    61  54  77 SE13      30.00F
RUSSELL        LGT RAIN  61  61 100 SW9       30.03R
CONCORDIA      CLOUDY    64  63  96 S5        29.99F
SALINA         LGT RAIN  66  64  93 N6        30.03F
TOPEKA         CLOUDY    69  67  93 CALM      30.01R



USA.gov is the U.S. government's official web portal to all federal, state and local government web resources and services.